EW6707 Weather Reports


time (UTC)temp
C
wind
direction
speed
KPH
gust
KPH
rain 1hr
cm
rain 24hr
cm
rain mn
cm
humidity
%
barometer
mb
20260506014516 -17 28 6.4 17.7 0.00 0.00 0.00
20260506013516 -17 29 8.0 19.3 0.00 0.00 0.00
20260506012517 -17 22 6.4 20.9 0.00 0.00 0.00
20260506011535 -17 20 6.4 17.7 0.00 0.00 0.00
20260506010517 -17 23 3.2 25.7 0.00 0.00 0.00
20260506005516 -17 25 6.4 19.3 0.00 0.00 0.00
20260506004517 -17 3 8.0 22.5 0.00 0.00 0.00
20260506003515 -17 358 4.8 14.5 0.00 0.00 0.00
20260506002558 -17 10 9.7 19.3 0.00 0.00 0.00
20260506001514 -17 19 4.8 16.1 0.00 0.00 0.00
20260506000516 -17 10 4.8 17.7 0.00 0.00 0.00
20260505235516 -17 18 6.4 17.7 0.00 0.00 0.00
20260505234518 -17 19 6.4 22.5 0.00 0.00 0.00
20260505233536 -17 16 4.8 25.7 0.00 0.00 0.00
20260505232516 -17 10 6.4 16.1 0.00 0.00 0.00
20260505231516 -17 20 8.0 22.5 0.00 0.00 0.00
20260505230516 -17 1 1.6 17.7 0.00 0.00 0.00
20260505225517 -17 12 6.4 17.7 0.00 0.00 0.00
20260505224536 -17 18 6.4 17.7 0.00 0.00 0.00
20260505223536 -17 15 3.2 14.5 0.00 0.00 0.00
20260505222518 -17 26 3.2 19.3 0.00 0.00 0.00
20260505221516 -17 13 4.8 16.1 0.00 0.00 0.00
20260505220516 -17 23 8.0 19.3 0.00 0.00 0.00
20260505215515 -17 23 6.4 16.1 0.00 0.00 0.00
20260505214515 -17 25 3.2 12.9 0.00 0.00 0.00
20260505213515 -17 13 4.8 19.3 0.00 0.00 0.00
20260505212515 -17 16 8.0 17.7 0.00 0.00 0.00
20260505211515 -17 24 9.7 20.9 0.00 0.00 0.00
20260505210515 -17 20 6.4 20.9 0.00 0.00 0.00
20260505205515 -17 9 6.4 17.7 0.00 0.00 0.00
20260505204537 -17 15 4.8 17.7 0.00 0.00 0.00
20260505203515 -17 14 6.4 17.7 0.00 0.00 0.00
20260505202536 -17 24 3.2 19.3 0.00 0.00 0.00
20260505201515 -17 27 4.8 19.3 0.00 0.00 0.00
20260505200515 -17 19 6.4 19.3 0.00 0.00 0.00
20260505195515 -17 38 3.2 12.9 0.00 0.00 0.00
20260505194517 -17 32 6.4 14.5 0.00 0.00 0.00
20260505193516 -17 10 4.8 12.9 0.00 0.00 0.00
20260505192516 -17 35 3.2 12.9 0.00 0.00 0.00
20260505191514 -17 27 1.6 14.5 0.00 0.00 0.00
20260505190517 -17 16 3.2 17.7 0.00 0.00 0.00
20260505185515 -17 29 8.0 17.7 0.00 0.00 0.00
20260505184515 -17 34 6.4 17.7 0.00 0.00 0.00
20260505183516 -17 31 6.4 19.3 0.00 0.00 0.00
20260505182518 -17 28 4.8 17.7 0.00 0.00 0.00
20260505181539 -17 29 6.4 12.9 0.00 0.00 0.00
20260505180516 -17 23 3.2 22.5 0.00 0.00 0.00
20260505175538 -17 20 8.0 20.9 0.00 0.00 0.00
20260505174518 -17 37 9.7 19.3 0.00 0.00 0.00
20260505173557 -17 35 6.4 20.9 0.00 0.00 0.00
20260505172517 -17 42 6.4 17.7 0.00 0.00 0.00
20260505171516 -17 47 8.0 17.7 0.00 0.00 0.00
20260505170517 -17 33 4.8 19.3 0.00 0.00 0.00
20260505165517 -17 61 6.4 19.3 0.00 0.00 0.00
20260505164517 15 66 6.4 20.9 0.00 0.00 0.00 57
20260505163538 15 25 6.4 20.9 0.00 0.00 0.00 57
20260505162537 15 357 12.9 22.5 0.00 0.00 0.00 54
20260505161516 15 18 9.7 32.2 0.00 0.00 0.00 56
20260505160516 15 18 6.4 20.9 0.00 0.00 0.00 55
20260505152518 16 345 9.7 25.7 0.00 0.00 0.00 53
20260505151518 16 46 9.7 17.7 0.00 0.00 0.00 51
20260505150536 16 50 4.8 19.3 0.00 0.00 0.00 52
20260505140516 16 31 8.0 17.7 0.00 0.00 0.00 56
20260505124516 13 60 6.4 19.3 0.00 0.00 0.00 66
20260505123515 13 61 6.4 17.7 0.00 0.00 0.00 69
20260505122536 12 53 8.0 20.9 0.00 0.00 0.00 71
20260505121539 12 36 8.0 19.3 0.00 0.00 0.00 72
20260505120538 12 17 4.8 17.7 0.00 0.00 0.00 73
20260505115517 12 29 1.6 16.1 0.00 0.00 0.00 74
20260505114515 -17 37 4.8 19.3 0.00 0.00 0.00
20260505113515 -17 50 3.2 14.5 0.00 0.00 0.00
20260505112516 -17 47 3.2 17.7 0.00 0.00 0.00
20260505111515 -17 35 8.0 16.1 0.00 0.00 0.00
20260505110515 -17 37 6.4 19.3 0.00 0.00 0.00
20260505101515 -17 43 1.6 16.1 0.00 12.42 0.00
20260505100515 -17 40 6.4 17.7 0.00 14.33 0.00
20260505095515 -17 44 8.0 19.3 0.00 14.33 0.00
20260505094515 -17 47 6.4 20.9 0.00 14.33 0.00
20260505093515 -17 33 9.7 20.9 0.00 14.33 0.00
20260505092517 -17 35 6.4 19.3 0.00 14.33 0.00
20260505091515 -17 42 6.4 16.1 0.00 14.33 0.00
20260505090518 -17 36 6.4 20.9 0.00 14.33 0.00
20260505085515 -17 39 6.4 20.9 0.00 14.33 0.00
20260505084515 -17 47 4.8 22.5 0.00 14.33 0.00
20260505083515 -17 44 8.0 19.3 0.00 14.33 0.00
20260505082515 -17 22 8.0 25.7 0.00 14.33 0.00
20260505081515 -17 34 9.7 25.7 0.00 14.33 0.00
20260505080515 -17 49 8.0 22.5 0.00 14.33 0.00
20260505075516 -17 43 8.0 27.4 0.00 14.33 0.00
20260505074514 -17 25 6.4 17.7 0.00 14.33 0.00
20260505073516 -17 31 8.0 22.5 0.00 14.33 0.00
20260505072514 -17 19 4.8 17.7 0.00 14.33 0.00
20260505071515 -17 16 3.2 24.1 0.00 14.33 0.00
20260505070515 -17 16 3.2 17.7 0.00 14.33 0.00
20260505065515 -17 9 1.6 9.7 0.00 14.33 0.00
20260505064516 -17 40 6.4 19.3 0.00 14.33 0.00
20260505063514 -17 7 1.6 16.1 0.00 14.33 0.00
20260505062514 -17 18 1.6 16.1 0.00 14.33 0.00
20260505061538 -17 34 1.6 12.9 0.00 14.33 0.00
20260505060517 -17 22 1.6 16.1 0.00 14.33 0.00
20260505055540 -17 32 4.8 16.1 0.00 14.33 0.00
20260505054557 -17 28 3.2 11.3 0.00 14.33 0.00
20260505053514 -17 35 4.8 16.1 0.00 14.33 0.00
20260505052516 -17 33 1.6 17.7 0.00 14.33 0.00
20260505051516 -17 23 6.4 19.3 0.00 14.33 0.00
20260505050518 -17 26 4.8 17.7 0.00 14.33 0.00
20260505041516 -17 34 1.6 11.3 0.00 14.33 0.00
20260505040516 -17 24 3.2 16.1 0.00 14.33 0.00
20260505035516 -17 36 4.8 16.1 0.00 14.33 0.00
20260505034516 -17 45 0.0 12.9 0.00 14.33 0.00
20260505033536 -17 17 1.6 11.3 0.00 14.33 0.00
20260505032516 -17 18 3.2 12.9 0.00 14.33 0.00
20260505031556 -17 17 3.2 16.1 0.00 14.33 0.00
20260505030516 -17 15 4.8 12.9 0.00 14.33 0.00
20260505025516 -17 10 0.0 19.3 0.00 14.33 0.00
20260505024516 -17 24 6.4 19.3 0.00 14.33 0.00
20260505023517 -17 51 4.8 17.7 0.00 14.33 0.00
20260505022516 -17 32 4.8 17.7 0.00 14.33 0.00
20260505021517 -17 28 9.7 22.5 0.00 14.33 0.00
20260505020556 -17 27 3.2 17.7 0.00 14.33 0.00
20260505015516 -17 25 6.4 17.7 0.00 14.33 0.00